www.pogodaiklimat.ru

Погода и климат >> Архив погоды >> Гренландия >> Kap Morris Jesup


ПОГОДА в Kap Morris Jesup

  • Прогноз погоды в Kap Morris Jesup
  • Монитор погоды в Kap Morris Jesup

АРХИВ ПОГОДЫ в Kap Morris Jesup

Время (UTC), дата Ветер
(напр.,м/с)
 
Видим.   Явления Облачность Т
(С)
Тd
(С)
f
(%)
Тe
(С)
Тes
(С)
Комфортность P
(гПа)
Po
(гПа)
Тmin
(С)
Tmax
(С)
R
(мм)
R24
(мм)
S
(см)
16 18.05 З 2 н/о н/о -8.1 -11.4 77 -12 -12 1033.4 1032.9
17 18.05 З 1 н/о н/о -8.0 -11.6 75 -10 -10 1033.3 1032.8
18 18.05 ЮЗ 1 н/о н/о -8.3 -11.9 75 -11 -11 1033.1 1032.6
19 18.05 ЮЗ 2 н/о н/о -9.4 -12.8 76 -14 -14 1033.1 1032.6
20 18.05 ЮЗ 3 н/о н/о -10.5 -13.7 77 -16 -16 1033.0 1032.5
21 18.05 ЮЗ 2 н/о н/о -10.7 -14.0 77 -15 -15 1033.2 1032.7
22 18.05 ЮЗ 2 н/о н/о -10.2 -12.6 83 -14 -14 1033.1 1032.6
23 18.05 ЮВ 1 н/о н/о -9.7 -11.0 90 -12 -12 1032.9 1032.4
00 19.05 В 2 н/о н/о -9.8 -10.5 95 -14 -14 1033.0 1032.5
01 19.05 В 2 н/о н/о -10.0 -11.1 92 -14 -14 1033.0 1032.5
02 19.05 В 2 н/о н/о -10.4 -11.7 90 -14 -14 1032.9 1032.4
03 19.05 В 3 н/о н/о -11.1 -12.5 89 -17 -17 1032.7 1032.2
04 19.05 0 н/о н/о -10.9 -12.3 89 1032.6 1032.1
05 19.05 ЮВ 2 н/о н/о -11.0 -12.5 89 -15 -15 1032.5 1032.0
06 19.05 0 н/о н/о -11.2 -12.9 87 1032.3 1031.8
07 19.05 0 н/о н/о -11.4 -13.2 86 1032.1 1031.6
08 19.05 0 н/о н/о -11.7 -13.6 86 1032.0 1031.5
09 19.05 0 н/о н/о -11.2 -13.0 87 1031.9 1031.4
10 19.05 0 н/о н/о -11.4 -13.3 86 1031.8 1031.3
11 19.05 0 н/о н/о -10.5 -12.5 85 1031.8 1031.3
12 19.05 В 6 н/о н/о -10.8 -12.5 87 -19 -19 1031.6 1031.1
13 19.05 В 3 н/о н/о -9.8 -11.3 89 -15 -15 1031.3 1030.8
14 19.05 В 3 н/о н/о -9.1 -11.1 85 -14 -14 1031.2 1030.7
15 19.05 З 7 н/о н/о -9.0 -10.7 87 -18 -18 1031.0 1030.5
16 19.05 0 н/о н/о -8.9 -10.9 85 1030.7 1030.2
17 19.05 0 н/о н/о -8.9 -11.0 85 1030.2 1029.7
18 19.05 Ю 2 н/о н/о -9.2 -11.2 85 -14 -14 1030.1 1029.6
19 19.05 В 3 н/о н/о -9.1 -10.9 87 -15 -15 1029.8 1029.3
20 19.05 В 4 н/о н/о -9.0 -10.6 88 -16 -16 1029.7 1029.2
21 19.05 0 н/о н/о -9.4 -10.9 89 1029.9 1029.4
22 19.05 В 3 н/о н/о -9.3 -10.6 90 -15 -15 1029.8 1029.3
23 19.05 В 5 н/о н/о -9.7 -11.0 90 -18 -18 1029.9 1029.4
00 20.05 В 4 н/о н/о -9.9 -11.7 87 -17 -17 1029.5 1029.0
01 20.05 В 5 н/о н/о -10.1 -11.9 87 -18 -18 1029.7 1029.2
02 20.05 В 3 н/о н/о -10.7 -12.7 85 -17 -17 1029.7 1029.2
03 20.05 В 2 н/о н/о -11.0 -13.2 84 -16 -16 1029.6 1029.1
04 20.05 В 5 н/о н/о -11.9 -14.0 84 -20 -20 1029.8 1029.3
05 20.05 ЮВ 1 н/о н/о -12.1 -14.0 86 -14 -14 1030.1 1029.6
06 20.05 В 1 н/о н/о -10.3 -12.4 85 -11 -11 1030.1 1029.6
07 20.05 ЮЗ 1 н/о н/о -12.6 -14.6 85 -13 -13 1030.7 1030.2
08 20.05 З 3 н/о н/о -12.6 -13.9 90 -18 -18 1031.1 1030.6
09 20.05 З 1 н/о н/о -12.1 -13.6 89 -14 -14 1031.3 1030.8
10 20.05 З 2 н/о н/о -11.7 -13.3 88 -15 -15 1031.4 1030.9
11 20.05 З 1 н/о н/о -11.7 -13.2 89 -14 -14 1032.0 1031.5
12 20.05 З 1 н/о н/о -11.1 -12.8 87 -13 -13 1032.1 1031.6
13 20.05 З 1 н/о н/о -10.9 -12.7 87 -11 -11 1032.0 1031.5
14 20.05 З 1 н/о н/о -10.7 -12.7 85 -13 -13 1032.1 1031.6
15 20.05 СЗ 2 н/о н/о -10.8 -12.7 86 -14 -14 1032.3 1031.8
16 20.05 З 1 н/о н/о -10.8 -12.7 86 -13 -13 1032.2 1031.7
17 20.05 З 1 н/о н/о -10.6 -12.7 85 -13 -13 1032.4 1031.9
18 20.05 З 2 н/о н/о -10.6 -12.7 85 -14 -14 1032.5 1032.0
19 20.05 СЗ 1 н/о н/о -10.0 -12.1 85 -10 -10 1032.5 1032.0
20 20.05 З 1 н/о н/о -10.3 -12.6 83 -13 -13 1032.6 1032.1
21 20.05 СЗ 1 н/о н/о -9.4 -11.7 83 -10 -10 1032.8 1032.3
22 20.05 В 2 н/о н/о -10.6 -12.3 87 -15 -15 1032.9 1032.4
23 20.05 В 2 н/о н/о -10.5 -12.3 87 -15 -15 1033.0 1032.5
00 21.05 В 2 н/о н/о -10.8 -12.7 86 -14 -14 1033.2 1032.7
01 21.05 В 2 н/о н/о -11.4 -13.2 86 -15 -15 1033.5 1033.0
02 21.05 В 2 н/о н/о -11.4 -13.2 86 -15 -15 1033.5 1033.0
03 21.05 В 2 н/о н/о -10.6 -13.0 82 -14 -14 1033.5 1033.0
04 21.05 В 2 н/о н/о -12.4 -14.6 84 -17 -17 1033.5 1033.0
05 21.05 В 2 н/о н/о -11.7 -14.4 80 -15 -15 1033.6 1033.1
06 21.05 В 2 н/о н/о -10.8 -14.0 77 -14 -14 1033.5 1033.0
07 21.05 В 2 н/о н/о -12.0 -15.4 76 -16 -16 1033.5 1033.0
08 21.05 В 2 н/о н/о -11.4 -14.9 75 -16 -16 1033.6 1033.1
09 21.05 В 2 н/о н/о -12.2 -15.3 78 -17 -17 1033.8 1033.3
10 21.05 В 2 н/о н/о -10.5 -14.0 75 -14 -14 1033.9 1033.4
11 21.05 В 3 н/о н/о -10.6 -13.9 77 -16 -16 1033.9 1033.4
12 21.05 В 2 н/о н/о -9.3 -12.2 79 -14 -14 1033.8 1033.3
13 21.05 В 5 н/о н/о -9.0 -11.6 81 -16 -16 1033.8 1033.3
14 21.05 В 6 н/о н/о -8.6 -11.1 82 -17 -17 1034.0 1033.5
15 21.05 В 6 н/о н/о -8.7 -10.8 85 -17 -17 1034.0 1033.5
16 21.05 В 6 н/о н/о -7.8 -10.4 82 -16 -16 1034.3 1033.8
17 21.05 В 5 н/о н/о -7.7 -10.3 82 -15 -15 1034.2 1033.7
18 21.05 В 4 н/о н/о -7.9 -9.9 86 -15 -15 1034.3 1033.8
19 21.05 В 5 н/о н/о -7.7 -9.4 88 -15 -15 1034.3 1033.8
20 21.05 В 5 н/о н/о -7.9 -9.6 88 -15 -15 1034.5 1034.0
21 21.05 В 5 н/о н/о -7.7 -9.3 88 -15 -15 1034.8 1034.3
22 21.05 В 3 н/о н/о -7.4 -9.6 84 -13 -13 1034.8 1034.3
23 21.05 ЮВ 4 н/о н/о -7.6 -9.2 88 -14 -14 1034.9 1034.4
00 22.05 В 4 н/о н/о -7.5 -9.2 88 -14 -14 1035.0 1034.5
01 22.05 В 4 н/о н/о -7.1 -8.6 89 -13 -13 1035.2 1034.7
02 22.05 В 4 н/о н/о -7.3 -8.6 90 -14 -14 1035.2 1034.7
03 22.05 В 4 н/о н/о -7.7 -9.0 90 -14 -14 1035.3 1034.8
04 22.05 В 2 н/о н/о -8.3 -9.4 92 -13 -13 1035.3 1034.8
05 22.05 В 2 н/о н/о -8.8 -9.7 93 -13 -13 1035.1 1034.6
06 22.05 СВ 1 н/о н/о -9.7 -10.4 95 -12 -12 1035.2 1034.7
07 22.05 В 2 н/о н/о -9.6 -10.9 90 -13 -13 1035.5 1035.0
08 22.05 В 2 н/о н/о -9.2 -10.8 88 -13 -13 1035.6 1035.1
09 22.05 В 1 н/о н/о -9.1 -10.9 87 -12 -12 1035.6 1035.1
10 22.05 В 2 н/о н/о -9.2 -10.8 88 -13 -13 1035.9 1035.4
11 22.05 В 1 н/о н/о -9.5 -11.8 83 -12 -12 1035.6 1035.1
12 22.05 СВ 1 н/о н/о -10.2 -11.7 89 -11 -11 1035.4 1034.9
13 22.05 В 1 н/о н/о -7.8 -10.6 80 -8 -8 1035.4 1034.9
14 22.05 В 1 н/о н/о -6.7 -9.4 81 -7 -7 1035.4 1034.9
15 22.05 ЮВ 1 н/о н/о -8.6 -11.1 82 -9 -9 1035.0 1034.5
16 22.05 Ю 1 н/о н/о -8.0 -11.3 77 -8 -8 1034.7 1034.2
17 22.05 ЮВ 1 н/о н/о -8.2 -11.8 75 -9 -9 1034.3 1033.8
18 22.05 С 1 н/о н/о -7.9 -11.2 77 -8 -8 1034.0 1033.5
19 22.05 СЗ 1 н/о н/о -7.3 -10.6 77 -8 -8 1033.6 1033.1
20 22.05 В 1 н/о н/о -5.4 -11.1 64 -6 -6 1033.3 1032.8
21 22.05 СЗ 1 н/о н/о -8.9 -11.2 83 -9 -9 1033.0 1032.5
22 22.05 З 2 н/о н/о -10.2 -11.5 90 -15 -15 1032.8 1032.3
23 22.05 ЮЗ 2 н/о н/о -9.6 -11.3 87 -13 -13 1032.4 1031.9
00 23.05 З 2 н/о н/о -10.4 -11.2 94 -15 -15 1032.1 1031.6
01 23.05 З 2 н/о н/о -10.9 -12.4 89 -15 -15 1031.8 1031.3
02 23.05 З 3 н/о н/о -11.7 -12.9 91 -17 -17 1031.4 1030.9
03 23.05 З 3 н/о н/о -11.9 -13.4 89 -18 -18 1031.2 1030.7
04 23.05 З 2 н/о н/о -11.8 -13.6 86 -16 -16 1030.9 1030.4
05 23.05 З 3 н/о н/о -11.7 -13.6 86 -17 -17 1030.5 1030.0
06 23.05 З 3 н/о н/о -12.1 -13.6 89 -18 -18 1030.4 1029.9
07 23.05 З 4 н/о н/о -11.5 -13.1 88 -19 -19 1030.1 1029.6
08 23.05 З 5 н/о н/о -11.4 -13.0 88 -19 -19 1030.0 1029.5
09 23.05 З 5 н/о н/о -10.6 -12.3 87 -19 -19 1029.7 1029.2
10 23.05 З 5 н/о н/о -10.5 -12.2 87 -19 -19 1029.6 1029.1
11 23.05 З 5 н/о н/о -9.6 -11.6 85 -18 -18 1029.5 1029.0
12 23.05 З 5 н/о н/о -9.6 -11.6 85 -17 -17 1029.2 1028.7
13 23.05 З 5 н/о н/о -9.6 -11.4 87 -18 -18 1028.7 1028.2
14 23.05 З 5 н/о н/о -9.2 -11.3 85 -17 -17 1028.5 1028.0
15 23.05 З 6 н/о н/о -8.7 -11.0 83 -17 -17 1028.0 1027.5
16 23.05 З 5 н/о н/о -8.4 -10.7 83 -16 -16 1027.4 1026.9
17 23.05 З 6 н/о н/о -8.4 -10.7 83 -17 -17 1027.0 1026.5
18 23.05 З 8 н/о н/о -7.8 -10.4 82 -17 -17 1026.5 1026.0
19 23.05 З 8 н/о н/о -7.6 -10.2 82 -17 -17 1026.2 1025.7
20 23.05 З 8 н/о н/о -7.5 -10.5 79 -17 -17 1025.7 1025.2
21 23.05 З 8 н/о н/о -7.6 -10.5 80 -17 -17 1025.2 1024.7
22 23.05 З 8 н/о н/о -7.3 -10.4 78 -17 -17 1024.8 1024.3
23 23.05 З 7 н/о н/о -7.4 -10.8 77 -16 -16 1024.5 1024.0
00 24.05 З 7 н/о н/о -7.5 -10.8 77 -16 -16 1024.3 1023.8
01 24.05 З 8 н/о н/о -7.6 -11.0 77 -17 -17 1024.0 1023.5
02 24.05 З 8 н/о н/о -7.4 -11.2 74 -17 -17 1023.9 1023.4
03 24.05 З 7 н/о н/о -8.1 -11.0 80 -17 -17 1023.4 1022.9
04 24.05 З 7 н/о н/о -8.1 -10.9 80 -17 -17 1022.9 1022.4
05 24.05 З 8 н/о н/о -7.7 -10.3 82 -17 -17 1022.5 1022.0
06 24.05 З 9 н/о н/о -7.1 -9.9 80 -17 -17 1022.0 1021.5
07 24.05 З 8 н/о н/о -6.8 -9.5 81 -16 -16 1022.3 1021.8
08 24.05 З 10 н/о н/о -6.0 -9.7 75 -16 -16 1022.1 1021.6
09 24.05 З 10 н/о н/о -6.2 -9.5 77 -16 -16 1022.2 1021.7
10 24.05 З 9 н/о н/о -6.2 -9.2 79 -16 -16 1022.4 1021.9
11 24.05 З 7 н/о н/о -5.9 -8.7 81 -14 -14 1022.3 1021.8
12 24.05 З 7 н/о н/о -5.7 -8.5 81 -14 -14 1022.6 1022.1
13 24.05 З 7 н/о н/о -5.2 -8.9 75 -13 -13 1022.9 1022.4
14 24.05 З 4 н/о н/о -5.0 -8.4 77 -11 -11 1023.3 1022.8
15 24.05 З 3 н/о н/о -4.6 -8.8 72 -10 -10 1023.4 1022.9
16 24.05 СЗ 2 н/о н/о -4.3 -8.5 72 -8 -8 1023.5 1023.0
17 24.05 З 2 н/о н/о -4.2 -8.6 71 -7 -7 1023.4 1022.9
18 24.05 В 2 н/о н/о -4.2 -7.4 78 -8 -8 1023.4 1022.9
19 24.05 В 3 н/о н/о -4.3 -7.2 80 -10 -10 1023.6 1023.1
20 24.05 В 5 н/о н/о -4.4 -6.5 85 -12 -12 1023.5 1023.0
21 24.05 В 6 н/о н/о -4.5 -6.4 87 -12 -12 1023.4 1022.9
22 24.05 В 5 н/о н/о -4.5 -6.8 84 -12 -12 1023.3 1022.8
23 24.05 В 5 н/о н/о -5.2 -7.1 86 -12 -12 1023.2 1022.7
00 25.05 В 5 н/о н/о -5.6 -7.4 87 -13 -13 1023.4 1022.9
01 25.05 В 6 н/о н/о -6.0 -7.9 86 -14 -14 1023.2 1022.7
02 25.05 В 5 н/о н/о -6.4 -8.3 86 -14 -14 1022.9 1022.4
03 25.05 В 6 н/о н/о -6.6 -8.4 87 -14 -14 1022.7 1022.2
04 25.05 В 5 н/о н/о -6.6 -8.5 86 -14 -14 1022.6 1022.1
05 25.05 В 6 н/о н/о -6.5 -8.4 86 -14 -14 1022.6 1022.1
06 25.05 В 6 н/о н/о -6.7 -8.6 86 -15 -15 1022.4 1021.9
07 25.05 В 6 н/о н/о -6.5 -8.4 86 -14 -14 1022.3 1021.8
09 25.05 В 6 н/о н/о -5.9 -8.0 85 -14 -14 1021.9 1021.4
10 25.05 В 6 н/о н/о -5.8 -7.9 85 -14 -14 1021.6 1021.1
11 25.05 В 7 н/о н/о -5.7 -7.8 85 -14 -14 1021.6 1021.1
12 25.05 В 7 н/о н/о -5.9 -8.0 85 -15 -15 1021.5 1021.0
13 25.05 В 8 н/о н/о -5.9 -8.0 85 -15 -15 1021.3 1020.8
14 25.05 В 8 н/о н/о -5.7 -7.8 85 -15 -15 1021.0 1020.5
15 25.05 В 8 н/о н/о -5.6 -7.7 85 -14 -14 1020.8 1020.3
16 25.05 В 8 н/о н/о -5.3 -7.4 85 -14 -14 1020.6 1020.1

 

Местоположение метеостанции Kap Morris Jesup (Гренландия): широта 83.65 долгота -33.36 высота над уровнем моря 4 м.

В архиве по умолчанию представлена погода в Kap Morris Jesup за последнюю неделю. Архивные данные за месяц целиком и за предыдущие месяцы, начиная с января 2011 года, Вы можете получить, выбрав интересующий диапазон дат из раскрывающегося списка и нажав кнопку "Ввод!".


*Определитесь, кто Вы:
робот инопланетянин человек

Внимание! Время в таблицах - всемирное. Для получения местного времени необходимо прибавить поправку, которая равна -3 ч.

Смотрите также архив погоды в соседних городах и на ближайших метеорологических станциях:

Погода в Station Nord aws (Гренландия) (327 км)
Погода в Алерте (Нунавут, Канада) (404 км)
Погода в Henrik Kroeyer Holm (Гренландия) (443 км)
Погода в Danmarkshavn (Гренландия) (808 км)
Погода на Верлегенхукен (Норвегия) (841 км)
Погода в Юрике (Нунавут, Канада) (883 км)
Погода в Юрике (Нунавут, Канада) (884 км)
Погода в Ню-Олесунн (Норвегия) (889 км)
Погода на Острове Карла XII (Норвегия) (898 км)
Погода в Mittarfik Qaanaaq (Гренландия) (919 км)

Пояснения к столбцам:

Ветер - указаны скорость ветра в м/с - средняя за 10 мин, порывы в срок и между сроками (в фигурных скобках) и направление, откуда дует ветер: С - северный, СВ - северо-восточный, В - восточный, ЮВ - юго-восточный, Ю - южный, ЮЗ - юго-западный, З - западный, СЗ - северо-западный.
Видимость - горизонтальная дальность видимости в метрах или километрах. При видимости от 1 до 10 км при отсутствии осадков обычно наблюдается дымка, при ухудшении видимости до 1 км и менее - туман. В сухую погоду видимость может ухудшаться дымом, пылью или мглою.
Явления - указаны атмосферные явления, наблюдавшиеся в срок или в последний час перед сроком; фигурными скобками обозначены явления, наблюдавшиеся между сроками (за 1-3 часа до срока); квадратными скобками обозначены град или гололедные отложения с указанием их диаметра в мм.
Облачность - указаны через наклонную черту общая и нижняя облачность в баллах и высота нижней границы облаков в метрах; квадратными скобками обозначены формы облаков: Ci - перистые, Cs - перисто-слоистые, Cc - перисто-кучевые, Ac - высококучевые, As - высокослоистые, Sc - слоисто-кучевые, Ns - слоисто-дождевые, Cu - кучевые, Cb - кучево-дождевые. Подробнее классификацию облаков см. в Атласе облаков (PDF).
T - Температура воздуха - температура, измеренная на высоте 2 м над землей.
Td - Температура точки росы - температура, при понижении до которой содержащийся в воздухе водяной пар достигнет насыщения.
f - Относительная влажность воздуха - влажноcть воздуха, измеренная на высоте 2 м над землей.
Te - Эффективная температура - температура, которую ощущает одетый по сезону человек в тени. Характеристика душности погоды. При расчете учитывается влияние влажности воздуха и скорости ветра на теплоощущения человека.
Tes - Эффективная температура на солнце - температура, которую ощущает человек, с поправкой на солнечный нагрев. Характеристика знойности погоды. Зависит от высоты солнца над горизонтом, облачности и скорости ветра. Ночью, в пасмурную погоду, а также при ветре 12 м/с и более поправка равна нулю.
P - Атмосферное давление - приведенное к уровню моря атмосферное давление.
Po - Атмосферное давление - измеренное на уровне метеостанции атмосферное давление.
Tmin - Минимальная температура - минимум температуры воздуха на высоте 2 м над землей.
Tmax - Максимальная температура - максимум температуры воздуха на высоте 2 м над землей.
R - Количество осадков - Количество выпавших осадков за период времени, мм. При наведении курсора мыши на число - период времени, за который выпало указанное количество осадков.
R24 - Количество осадков - Количество выпавших осадков за 24 часа, мм.
S - Снежный покров - Высота снежного покрова, см. При наведении курсора мыши на число - состояние снежного покрова и степень покрытия местности в баллах.